Location: Aulmoit
(50.7500°N, 3.7667°E)
Time: 17:25:38
(UTC+00:00)

Daily predictions for brighter satellites

Satellite Brightness Start Highest point End
(mag) Time Altitude Azimuth Time Altitude Azimuth Time Altitude Azimuth
NOSS 3-3 (A) 4.0 17:21:44 10° SSW 17:26:44 50° ESE 17:32:40 10° NE
CARTOSAT-1 4.4 17:25:45 10° ESE 17:29:16 27° ENE 17:32:49 10° N
Cosmos 1802 Rocket 4.3 17:27:22 10° NNW 17:33:48 78° W 17:40:13 10° S
Cosmos 2285 Rocket 4.1 17:29:47 10° NNW 17:36:12 61° ENE 17:42:30 10° SE
Cosmos 2233 Rocket 4.0 17:30:24 10° N 17:36:42 74° ENE 17:43:01 10° SSE
CZ-4 R/B 4.3 17:33:50 10° SSE 17:37:46 69° ENE 17:41:45 10° N
USA 290 2.4 17:34:45 10° SSW 17:37:56 73° WNW 17:41:07 10° NNE
NOSS 0 Rocket 4.0 17:32:30 10° NNW 17:38:48 89° NE 17:45:03 10° SSE
USA 306 4.1 17:37:52 10° W 17:40:19 22° SW 17:42:08 10° S
ARIANE 6 FM1 Upper Stage 4.0 17:38:44 10° NNW 17:41:56 23° NNE 17:45:04 10° ENE
NOSS 3-4 (A) 3.8 17:38:11 10° NW 17:44:36 62° NE 17:52:12 10° ESE
NOSS 3-4 (C) 3.9 17:38:27 10° NW 17:44:53 61° NE 17:52:30 10° ESE
Cosmos 1725 Rocket 4.4 17:39:14 10° NNW 17:45:27 71° W 17:51:41 10° S
Cosmos 2151 Rocket 3.8 17:44:43 10° NNW 17:49:14 80° W 17:53:44 10° S
Meteor 1-11 4.3 17:46:45 10° S 17:52:24 87° ESE 17:58:11 10° NNE
Radarsat Rocket 4.0 17:49:40 10° SSE 17:55:30 67° ENE 18:01:52 10° NNW
Cosmos 1607 4.0 17:49:39 10° SW 17:55:48 86° NW 18:02:03 10° NE
Cosmos 1455 Rocket 3.3 17:52:45 10° N 17:56:52 43° ENE 18:00:58 10° SSE
Cosmos 44 Rocket 4.3 17:55:22 10° S 17:59:30 28° ESE 18:03:10 13° ENE
Cosmos 2228 3.8 17:56:06 10° N 17:59:43 27° ENE 18:03:20 10° SE
YAOGAN 1 2.4 17:55:37 10° SSE 17:59:51 80° ENE 18:04:08 10° NNW
Cosmos 1975 Rocket 4.1 17:56:49 10° SE 18:00:11 22° E 18:03:32 10° NE
COSMO-SKYMED 1 2.7 17:56:18 10° NNE 18:00:17 44° E 18:04:13 10° S
PSLV R/B 3.5 17:56:41 10° SSE 18:00:40 52° ENE 18:04:40 10° N
ATLAS 2AS CENTAUR R/B 3.9 17:55:02 10° W 18:01:10 33° NNW 18:07:13 10° NE
Cosmos 1782 3.9 17:58:51 10° NNE 18:01:31 19° ENE 18:03:12 15° ESE
Cosmos 2297 Rocket 2.4 17:56:49 10° S 18:02:15 50° ESE 18:07:44 10° NE
Lacrosse 5 rocket 1.9 18:00:11 10° W 18:03:31 40° NNW 18:06:24 13° NE
DNEPR-1 R/B 4.1 17:59:57 10° NW 18:04:33 51° NE 18:10:00 10° ESE
SPOT 1/Viking Rocket 4.2 18:01:51 10° S 18:06:54 59° W 18:12:00 10° NNW
Cosmos 2061 Rocket 4.2 18:00:45 10° NNW 18:07:09 80° W 18:13:26 10° S
Aureole 3 Rocket 2.5 18:03:20 10° N 18:07:24 72° ENE 18:10:37 10° SSE
CZ-2D R/B 3.3 18:05:46 10° SSE 18:09:41 87° E 18:13:44 10° NNW
Okean 1 Rocket 3.4 18:07:51 10° NNW 18:12:15 71° W 18:16:35 10° S
SL-16 R/B 4.2 18:07:01 10° N 18:12:25 33° WNW 18:17:49 10° WSW
CZ-4C R/B 2.0 18:09:04 10° SW 18:13:25 74° NW 18:19:06 10° NE
Cosmos 1464 Rocket 4.2 18:10:29 10° N 18:16:40 48° ENE 18:22:43 10° SSE
Okean 2 Rocket 3.9 18:13:11 10° NNW 18:17:29 55° W 18:21:44 10° S
Cosmos 2344 4.3 18:13:26 10° SSE 18:19:47 27° ESE 18:23:44 17° ENE
Cosmos 2221 Rocket 3.7 18:15:52 10° S 18:20:20 84° W 18:24:53 10° N
USA 267 3.4 18:15:08 13° ENE 18:21:08 75° NNW 18:27:39 10° WSW
ERS-1 Rocket 4.5 18:22:17 17° ENE 18:22:32 17° NE 18:25:40 10° NNE
SJ-6B 2.7 18:21:17 10° SE 18:24:33 43° ENE 18:27:51 10° N
Cosmos 1980 4.1 18:24:21 10° NW 18:29:59 65° WSW 18:35:33 10° SSE
Cosmos 2263 Rocket 3.2 18:26:25 10° SSE 18:30:52 24° ESE 18:31:44 23° E
Cosmos 1025 Rocket 3.9 18:26:45 10° SSW 18:30:57 52° WNW 18:35:14 10° N
Cosmos 2237 Rocket 2.7 18:29:38 10° NW 18:35:16 64° WSW 18:40:53 10° SSE
Meteor 1-31 Rocket 3.5 18:36:36 28° NE 18:36:36 28° NE 18:39:04 10° N
Meteor 1-27 4.3 18:31:56 10° NNW 18:37:43 86° W 18:43:34 10° S
SeaSat 1 4.5 18:38:12 10° S 18:42:26 29° WSW 18:46:42 10° NW
Cosmos 1570 Rocket 3.9 18:38:16 10° SSW 18:43:33 83° ESE 18:48:50 10° NNE
Resurs 01 Rocket 1.7 18:39:30 10° S 18:43:54 80° WSW 18:48:20 10° NNW
SPOT 5 3.2 18:45:52 26° ESE 18:48:15 45° ENE 18:53:08 10° N
NOSS 3-3 (C) 4.1 18:45:01 10° WSW 18:50:22 65° NW 18:55:59 14° NE
DMSP B5D1-3 4.4 18:47:32 10° NNE 18:52:41 83° ESE 18:57:48 10° SSW
Tiangong 0.3 18:54:11 10° SSW 18:55:41 14° S 18:55:41 14° S
SL-16 R/B 2.1 18:55:35 10° NNW 19:01:15 68° ENE 19:03:58 31° SE
Cosmos 2227 Rocket 2.1 18:55:57 10° SSW 19:01:30 62° ESE 19:05:16 21° NE
Cosmos 773 Rocket 4.0 18:59:10 10° SSW 19:04:26 86° WNW 19:09:46 10° NNE
Cosmos 1346 Rocket 3.8 19:00:57 10° S 19:02:49 28° S 19:02:49 28° S
Cosmos 2208 Rocket 3.9 18:59:24 10° SSW 19:04:40 89° ESE 19:10:02 10° NNE
Tsikada Rocket 4.2 19:02:39 10° SSE 19:08:22 42° E 19:14:08 10° NNE
CZ-4 R/B 2.5 19:17:56 30° N 19:17:56 30° N 19:19:58 10° N
Okean O Rocket 3.9 19:20:31 13° NNE 19:20:31 13° NNE 19:21:07 10° N
ARIANE 6 FM1 Upper Stage 2.6 19:17:31 10° NW 19:21:05 69° NNW 19:21:05 69° NNW
CZ-4B R/B 3.3 19:26:08 51° NE 19:26:08 51° NE 19:30:55 10° N
Terra 3.1 19:30:49 28° NNE 19:30:49 28° NNE 19:33:20 10° N
Cosmos 1544 Rocket 3.5 19:25:11 10° NNW 19:29:33 78° W 19:30:03 67° SSW
CZ-4B DEB 4.0 19:29:06 51° SE 19:30:31 78° ENE 19:36:00 10° NNW
CSL-04 Debris 4.1 19:30:41 32° SSE 19:33:20 85° WSW 19:38:47 10° NNW
Cosmos 2034 Rocket 4.1 19:28:21 10° NNW 19:34:32 76° W 19:40:43 10° S
Cosmos 1782 4.0 19:33:04 10° NNW 19:36:23 36° W 19:37:19 30° SW
TSX-5 4.2 19:32:07 10° NW 19:37:23 82° WSW 19:37:23 82° WSW
Cosmos 1975 Rocket 4.2 19:33:30 10° SSW 19:37:38 43° WNW 19:41:47 10° N
RESURS DK-1 4.2 19:34:02 10° NNW 19:35:40 22° N 19:35:40 22° N
CSL-04 Rocket 3.7 19:35:11 28° S 19:37:59 73° WSW 19:43:17 10° NNW
Cosmos 44 Rocket 3.7 19:35:40 10° SW 19:40:35 61° NW 19:41:49 46° N
Lacrosse 5 rocket 3.0 19:37:46 10° WNW 19:39:50 24° NNW 19:39:50 24° NNW
MOS 1 4.1 19:41:22 72° E 19:41:32 72° ENE 19:47:12 10° NNW
Cosmos 1634 Rocket 3.9 19:35:37 10° N 19:41:58 74° ENE 19:43:02 61° SE
Cosmos 2297 Rocket 3.6 19:41:16 10° WSW 19:46:29 36° NW 19:51:39 10° NNE
Cosmos 1943 3.4 19:43:30 10° NNW 19:48:32 59° NNE 19:48:32 59° NNE
ATLAS 2AS CENTAUR R/B 3.9 19:48:10 10° NW 19:54:00 29° N 19:55:21 27° NNE
BREEZE-M DEB (TANK) 3.9 19:39:01 10° W 19:55:42 64° S 19:56:30 59° SSE
ERS-1 Rocket 3.7 20:02:08 45° NNW 20:02:08 45° NNW 20:05:36 10° NNW
CZ-4C R/B 3.7 19:58:20 10° WNW 20:02:40 28° NNW 20:04:22 24° NNE
BREEZE-M DEB (TANK) 4.3 19:58:15 10° SW 20:03:14 61° SE 20:04:47 55° ESE
Cosmos 972 Rocket 4.4 19:58:40 10° NNW 20:02:45 59° NW 20:02:45 59° NW
USA 267 3.7 20:02:29 46° NNE 20:03:48 52° N 20:10:06 10° WNW
Cosmos 2279 Rocket 4.1 19:58:11 10° N 20:03:20 61° NNE 20:03:20 61° NNE
Cosmos 2263 Rocket 2.5 20:08:36 10° SW 20:13:31 61° WSW 20:13:31 61° WSW
ADEOS 4.4 20:23:44 46° NW 20:23:44 46° NW 20:27:43 10° NNW
Cosmos 2344 3.4 20:25:47 10° SW 20:33:22 75° NW 20:33:47 73° NNW
SL-16 R/B 4.1 20:40:26 10° NW 20:44:51 24° WSW 20:45:53 23° WSW
Cosmos 2227 Rocket 3.8 20:40:58 10° WSW 20:45:57 31° NW 20:47:09 28° NNW
Terra 4.5 21:09:26 16° NW 21:09:26 16° NW 21:10:36 10° NW
ATLAS 2AS CENTAUR R/B 4.4 21:39:44 10° NW 21:42:45 27° NNW 21:42:45 27° NNW
